Starlink 3523

operational
NORAD ID: 51729 Int'l Des: 2022-016 Owner: SPXS Country: US Constellation: starlink
LEOCIRCULAR

Starlink 3523について

説明を読み込み中...

リアルタイム位置

3D地球を読み込み中...

次回通過

高度履歴

Altitude vs Time

uPlot chart will show altitude changes over time

軌道要素

1 51729U 22016R 25303.92094645 .00000677 00000-0 60599-4 0 9990
2 51729 53.2177 181.6785 0001586 87.4989 272.6185 15.08840201203973
Epoch: Oct 30, 2025 • Age: 9 hours

現在のステータス

高度 559.3 km
速度 7.58 km/s
衛星直下点 -53.16°S, 65.31°W
打ち上げ日 Feb 21, 2022
運用期間 3.6 years
タイプ internet

技術仕様

分類 Payload
質量 297.00 kg
乾燥質量 275.00 kg
総質量 297.00 kg
長さ 0.20 m
直径 2.80 m
スパン 9.00 m
形状 Box + pan
製造者 SPXS
バスタイプ Starlink
フェーズステータス In Orbit
所有者/国 SPXS/US

大規模コンステレーション

Loading constellations...